TimeEDT,TemperatureF,Dew PointF,Humidity,Sea Level PressureIn,VisibilityMPH,Wind Direction,Wind SpeedMPH,Gust SpeedMPH,PrecipitationIn,Events,Conditions,WindDirDegrees,DateUTC
12:53 AM,68.0,53.1,59,29.67,10.0,Variable,5.8,16.1,0.00,Rain,Light Rain,0,2013-06-14 04:53:00
1:54 AM,66.9,52.0,59,29.68,-9999.0,NW,8.1,-,0.00,,Unknown,310,2013-06-14 05:54:00
2:53 AM,66.9,50.0,54,29.70,10.0,NNW,6.9,-,N/A,,Clear,340,2013-06-14 06:53:00
3:53 AM,66.0,50.0,56,29.72,10.0,North,4.6,-,N/A,,Partly Cloudy,10,2013-06-14 07:53:00
4:53 AM,64.9,50.0,58,29.73,10.0,NNW,9.2,17.3,N/A,,Clear,340,2013-06-14 08:53:00
5:53 AM,66.0,48.9,54,29.75,10.0,NNW,15.0,25.3,N/A,,Clear,330,2013-06-14 09:53:00
6:53 AM,64.9,50.0,58,29.77,10.0,North,9.2,20.7,N/A,,Partly Cloudy,350,2013-06-14 10:53:00
7:53 AM,66.9,51.1,57,29.81,10.0,North,8.1,16.1,N/A,,Partly Cloudy,10,2013-06-14 11:53:00
8:53 AM,68.0,51.1,55,29.83,10.0,NNW,8.1,16.1,N/A,,Partly Cloudy,340,2013-06-14 12:53:00
9:53 AM,68.0,50.0,52,29.86,10.0,North,9.2,16.1,N/A,,Scattered Clouds,350,2013-06-14 13:53:00
10:53 AM,70.0,51.1,51,29.88,10.0,North,8.1,-,N/A,,Partly Cloudy,10,2013-06-14 14:53:00
11:53 AM,70.0,50.0,49,29.90,10.0,North,5.8,-,N/A,,Overcast,350,2013-06-14 15:53:00
12:53 PM,73.0,51.1,46,29.90,10.0,NNE,5.8,-,N/A,,Mostly Cloudy,20,2013-06-14 16:53:00
1:53 PM,75.9,52.0,43,29.90,10.0,NNE,6.9,-,N/A,,Partly Cloudy,20,2013-06-14 17:53:00
2:53 PM,75.9,50.0,40,29.90,10.0,NNE,9.2,-,N/A,,Scattered Clouds,30,2013-06-14 18:53:00
3:53 PM,78.1,51.1,39,29.90,10.0,NNW,9.2,-,N/A,,Clear,340,2013-06-14 19:53:00
4:53 PM,78.1,50.0,37,29.90,10.0,North,9.2,-,N/A,,Scattered Clouds,350,2013-06-14 20:53:00
5:53 PM,77.0,52.0,42,29.90,10.0,Variable,5.8,-,N/A,,Scattered Clouds,0,2013-06-14 21:53:00
6:53 PM,77.0,51.1,40,29.91,10.0,NNW,4.6,-,N/A,,Clear,330,2013-06-14 22:53:00
7:53 PM,73.9,53.1,48,29.93,10.0,WNW,3.5,-,N/A,,Clear,300,2013-06-14 23:53:00
8:53 PM,71.1,52.0,51,29.94,10.0,West,3.5,-,N/A,,Clear,280,2013-06-15 00:53:00
9:53 PM,66.9,54.0,63,29.97,10.0,Calm,Calm,-,N/A,,Clear,0,2013-06-15 01:53:00
10:53 PM,64.0,55.0,73,29.99,10.0,WSW,3.5,-,N/A,,Clear,240,2013-06-15 02:53:00
11:53 PM,62.1,54.0,75,30.00,10.0,Calm,Calm,-,N/A,,Clear,0,2013-06-15 03:53:00